Weather History for Cody, WY

Change the Weather History Date:

Sunday, February 20, 2011

  Actual Average Record
Temperature  
Mean Temperature 0 °F -  
Max Temperature 3 °F 45 °F 70 °F (1935)
Min Temperature -2 °F 22 °F -21 °F (1918)
Degree Days  
Heating Degree Days 64    
Moisture  
Dew Point -12 °F    
Average Humidity 56    
Maximum Humidity 61    
Minimum Humidity 51    
Precipitation  
Precipitation 0.00 in - - ()
Sea Level Pressure  
Sea Level Pressure 29.76 in    
Wind  
Wind Speed 10 mph (North)    
Max Wind Speed 15 mph    
Max Gust Speed 21 mph    
Visibility 6 miles    
Events      
Averages and records for this station are not official NWS values.
T = Trace of Precipitation, MM = Missing Value Source: NWS Daily Summary

Daily Weather History Graph

Daily Weather History Graph

Search for Another Location

Airport:

Trip Planner

Search our weather history database for the weather conditions in past years. The results will help you decide how hot, cold, wet, or windy it might be!

Date:

Astronomy

Feb. 20, 2011 Rise Set
Actual Time 7:08 AM MST 5:51 PM MST
Civil Twilight 6:39 AM MST 6:21 PM MST
Nautical Twilight 6:05 AM MST 6:55 PM MST
Astronomical Twilight 5:31 AM MST 7:28 PM MST
Moon 9:28 PM MST (2/20) 7:55 AM MST (2/20)
Length of Visible Light 11h 42m
Length of Day
10h 42m
Waning Gibbous, 91% of the Moon is Illuminated
Feb 20
Waning Gibbous
Feb 24
Last Quarter
Mar 4
New
Mar 12
First Quarter
Mar 19
Full

Hourly Weather History & Observations

Time (MST) Temp. Windchill Dew Point Humidity Pressure Visibility Wind Dir Wind Speed Gust Speed Precip Events Conditions
12:15 AM 1.4 °F -16.9 °F -9.4 °F 61% 29.75 in 10.0 mi North 13.8 mph - N/A   Overcast
12:35 AM 1.4 °F -15.3 °F -11.2 °F 56% 29.75 in 10.0 mi North 11.5 mph - N/A   Overcast
12:55 AM 1.4 °F -16.9 °F -11.2 °F 56% 29.76 in 9.0 mi North 13.8 mph 19.6 mph N/A   Overcast
1:35 AM 1.4 °F -16.1 °F -11.2 °F 56% 29.70 in 10.0 mi North 12.7 mph - N/A   Overcast
2:15 AM -0.4 °F -17.6 °F -11.2 °F 60% 29.74 in 10.0 mi North 11.5 mph - N/A   Overcast
2:35 AM -0.4 °F -18.4 °F -11.2 °F 60% 29.71 in 7.0 mi North 12.7 mph - N/A   Overcast
2:55 AM -0.4 °F -19.9 °F -13.0 °F 55% 29.73 in 10.0 mi North 15.0 mph 19.6 mph N/A   Overcast
3:15 AM -0.4 °F -19.2 °F -13.0 °F 55% 29.73 in 10.0 mi North 13.8 mph 20.7 mph N/A   Overcast
3:35 AM -0.4 °F -19.9 °F -13.0 °F 55% 29.72 in 8.0 mi North 15.0 mph 20.7 mph N/A   Overcast
3:55 AM -0.4 °F -17.6 °F -13.0 °F 55% 29.73 in 4.0 mi North 11.5 mph - N/A   Overcast
4:15 AM -0.4 °F -19.9 °F -13.0 °F 55% 29.72 in 3.0 mi North 15.0 mph - N/A   Overcast
4:35 AM -0.4 °F -15.7 °F -13.0 °F 55% 29.72 in 5.0 mi North 9.2 mph 18.4 mph N/A   Overcast
5:15 AM -0.4 °F -17.6 °F -14.8 °F 51% 29.72 in 4.0 mi North 11.5 mph - N/A   Overcast
5:35 AM -0.4 °F -14.7 °F -14.8 °F 51% 29.72 in 5.0 mi North 8.1 mph 17.3 mph N/A   Overcast
5:55 AM -0.4 °F -13.4 °F -14.8 °F 51% 29.72 in 5.0 mi North 6.9 mph - N/A   Overcast
6:15 AM -2.2 °F -18.9 °F -14.8 °F 55% 29.72 in 6.0 mi North 10.4 mph - N/A   Overcast
6:35 AM -2.2 °F -19.9 °F -14.8 °F 55% 29.73 in 5.0 mi North 11.5 mph - N/A   Overcast
6:55 AM -2.2 °F -18.9 °F -14.8 °F 55% 29.73 in 10.0 mi North 10.4 mph - N/A   Overcast
7:15 AM -0.4 °F -15.7 °F -14.8 °F 51% 29.74 in 10.0 mi North 9.2 mph - N/A   Overcast
7:35 AM -0.4 °F -14.7 °F -14.8 °F 51% 29.75 in 10.0 mi North 8.1 mph - N/A   Overcast
7:55 AM -0.4 °F -14.7 °F -14.8 °F 51% 29.75 in 7.0 mi North 8.1 mph - N/A   Overcast
8:15 AM -0.4 °F -16.7 °F -14.8 °F 51% 29.77 in 4.0 mi North 10.4 mph - N/A   Overcast
8:35 AM -0.4 °F -19.2 °F -14.8 °F 51% 29.76 in 2.0 mi North 13.8 mph - N/A   Overcast
8:55 AM -0.4 °F -17.6 °F -14.8 °F 51% 29.77 in 2.5 mi North 11.5 mph - N/A   Overcast
9:15 AM -0.4 °F -16.7 °F -14.8 °F 51% 29.77 in 2.5 mi North 10.4 mph - N/A   Overcast
9:35 AM -0.4 °F -18.4 °F -14.8 °F 51% 29.77 in 5.0 mi North 12.7 mph - N/A   Overcast
9:55 AM -0.4 °F -15.7 °F -14.8 °F 51% 29.78 in 5.0 mi North 9.2 mph - N/A   Overcast
10:15 AM -0.4 °F -15.7 °F -14.8 °F 51% 29.78 in 5.0 mi North 9.2 mph - N/A   Overcast
10:35 AM -0.4 °F -14.7 °F -14.8 °F 51% 29.78 in 5.0 mi North 8.1 mph - N/A   Overcast
10:55 AM -0.4 °F -15.7 °F -14.8 °F 51% 29.79 in 3.0 mi North 9.2 mph - N/A   Overcast
11:15 AM -0.4 °F -14.7 °F -13.0 °F 55% 29.79 in 2.0 mi North 8.1 mph - N/A   Overcast
11:35 AM -0.4 °F -13.4 °F -11.2 °F 60% 29.78 in 1.8 mi North 6.9 mph - N/A   Overcast
11:55 AM -0.4 °F -13.4 °F -11.2 °F 60% 29.78 in 1.2 mi NNE 6.9 mph - N/A   Overcast
12:15 PM 1.4 °F -8.3 °F -11.2 °F 56% 29.78 in 1.2 mi North 4.6 mph - N/A   Overcast
12:35 PM 1.4 °F -11.3 °F -11.2 °F 56% 29.77 in 1.2 mi North 6.9 mph - N/A   Overcast
12:55 PM 1.4 °F -13.5 °F -11.2 °F 56% 29.77 in 2.0 mi NNE 9.2 mph - N/A   Overcast
1:15 PM 1.4 °F -14.5 °F -11.2 °F 56% 29.76 in 1.8 mi North 10.4 mph - N/A   Overcast
1:35 PM 1.4 °F -11.3 °F -11.2 °F 56% 29.76 in 2.0 mi North 6.9 mph - N/A   Overcast
1:55 PM 1.4 °F -11.3 °F -11.2 °F 56% 29.76 in 2.0 mi North 6.9 mph - N/A   Overcast
2:15 PM 1.4 °F -9.9 °F -11.2 °F 56% 29.76 in 2.5 mi North 5.8 mph - N/A   Overcast
2:35 PM 3.2 °F -7.8 °F -9.4 °F 56% 29.76 in 3.0 mi NNE 5.8 mph - N/A   Overcast
2:55 PM 1.4 °F -9.9 °F -11.2 °F 56% 29.76 in 4.0 mi NNE 5.8 mph - N/A   Overcast
3:15 PM 1.4 °F -9.9 °F -11.2 °F 56% 29.77 in 6.0 mi NE 5.8 mph - N/A   Mostly Cloudy
3:35 PM 1.4 °F -6.2 °F -11.2 °F 56% 29.78 in 7.0 mi NNE 3.5 mph - N/A   Overcast
3:55 PM 1.4 °F -6.2 °F -11.2 °F 56% 29.77 in 6.0 mi NE 3.5 mph - N/A   Overcast
4:15 PM 1.4 °F -8.3 °F -11.2 °F 56% 29.78 in 5.0 mi NE 4.6 mph - N/A   Overcast
4:35 PM 3.2 °F -4.2 °F -11.2 °F 51% 29.78 in 5.0 mi NNE 3.5 mph - N/A   Overcast
4:55 PM 1.4 °F -6.2 °F -11.2 °F 56% 29.78 in 5.0 mi NNE 3.5 mph - N/A   Overcast
5:15 PM 1.4 °F - -9.4 °F 61% 29.78 in 8.0 mi Calm Calm - N/A   Overcast
5:35 PM 1.4 °F - -9.4 °F 61% 29.79 in 7.0 mi Calm Calm - N/A   Overcast
5:55 PM 1.4 °F - -9.4 °F 61% 29.79 in 8.0 mi Calm Calm - N/A   Overcast
6:15 PM 1.4 °F - -9.4 °F 61% 29.80 in 10.0 mi Calm Calm - N/A   Overcast
6:35 PM 1.4 °F - -9.4 °F 61% 29.80 in 10.0 mi Calm Calm - N/A   Overcast
6:55 PM 1.4 °F -6.2 °F -9.4 °F 61% 29.81 in 10.0 mi East 3.5 mph - N/A   Overcast
7:15 PM 1.4 °F -6.2 °F -9.4 °F 61% 29.81 in 10.0 mi ESE 3.5 mph - N/A   Overcast
7:35 PM 1.4 °F - -9.4 °F 61% 29.80 in 10.0 mi Calm Calm - N/A   Overcast
7:55 PM 1.4 °F - -9.4 °F 61% 29.80 in 10.0 mi Calm Calm - N/A   Overcast
8:15 PM 3.2 °F - -9.4 °F 56% 29.79 in 10.0 mi Calm Calm - N/A   Overcast
8:35 PM 3.2 °F - -9.4 °F 56% 29.79 in 10.0 mi Calm Calm - N/A   Mostly Cloudy
8:55 PM 3.2 °F - -9.4 °F 56% 29.79 in 10.0 mi Calm Calm - N/A   Mostly Cloudy
9:15 PM 3.2 °F -4.2 °F -9.4 °F 56% 29.79 in 10.0 mi ENE 3.5 mph - N/A   Mostly Cloudy
9:35 PM 1.4 °F -9.9 °F -9.4 °F 61% 29.79 in 10.0 mi East 5.8 mph - N/A   Overcast
9:55 PM 3.2 °F -9.1 °F -9.4 °F 56% 29.79 in 10.0 mi East 6.9 mph - N/A   Overcast
10:15 PM 1.4 °F -8.3 °F -9.4 °F 61% 29.79 in 10.0 mi East 4.6 mph - N/A   Overcast
10:35 PM 1.4 °F -8.3 °F -9.4 °F 61% 29.79 in 10.0 mi East 4.6 mph - N/A   Mostly Cloudy
10:55 PM 1.4 °F - -9.4 °F 61% 29.79 in 10.0 mi Calm Calm - N/A   Mostly Cloudy
11:15 PM 1.4 °F - -9.4 °F 61% 29.79 in 10.0 mi Calm Calm - N/A   Scattered Clouds
11:35 PM 1.4 °F - -9.4 °F 61% 29.79 in 10.0 mi Calm Calm - N/A   Mostly Cloudy
11:55 PM 1.4 °F - -9.4 °F 61% 29.79 in 10.0 mi Calm Calm - N/A   Overcast